This is the latest recevied weather packets stored in our database for station/object W4NRG-1. If no packets are shown the sender has not sent any weather packets the latest 10 day(s).
| Time | Temp. | Humidity | Pressure | Rain* | Wind** | Luminosity | Snow |
|---|---|---|---|---|---|---|---|
| 1778001147 | 26.67° C | 44% | 1013.8 hPa | 0 mm | - | - | - |
| 1778000843 | 27.22° C | 43% | 1013.7 hPa | 0 mm | - | - | - |
| 1778000540 | 27.22° C | 43% | 1014 hPa | 0 mm | - | - | - |
| 1778000236 | 26.67° C | 43% | 1014.3 hPa | 0 mm | - | - | - |
| 1777999932 | 26.67° C | 43% | 1014.3 hPa | 0 mm | - | - | - |
| 1777999627 | 27.22° C | 41% | 1014.2 hPa | 0 mm | - | - | - |
| 1777999325 | 26.67° C | 41% | 1014.4 hPa | 0 mm | - | - | - |
| 1777999023 | 26.67° C | 43% | 1014.5 hPa | 0 mm | - | - | - |
| 1777998721 | 26.67° C | 43% | 1014.3 hPa | 0 mm | - | - | - |
| 1777998418 | 26.67° C | 43% | 1014.3 hPa | 0 mm | - | - | - |
| 1777998115 | 26.11° C | 44% | 1014.4 hPa | 0 mm | - | - | - |
| 1777997812 | 26.11° C | 44% | 1014.6 hPa | 0 mm | - | - | - |
| 1777997509 | 26.11° C | 44% | 1014.5 hPa | 0 mm | - | - | - |
| 1777997207 | 25.56° C | 46% | 1014.7 hPa | 0 mm | - | - | - |
| 1777996904 | 25.56° C | 45% | 1014.8 hPa | 0 mm | - | - | - |
| 1777996601 | 25.56° C | 45% | 1014.8 hPa | 0 mm | - | - | - |
| 1777996297 | 25.56° C | 46% | 1014.8 hPa | 0 mm | - | - | - |
| 1777995993 | 25.56° C | 46% | 1014.9 hPa | 0 mm | - | - | - |
| 1777995689 | 25° C | 45% | 1014.8 hPa | 0 mm | - | - | - |
| 1777995386 | 25.56° C | 45% | 1014.8 hPa | 0 mm | - | - | - |
| 1777995084 | 25° C | 49% | 1014.7 hPa | 0 mm | - | - | - |
| 1777994780 | 24.44° C | 49% | 1014.8 hPa | 0 mm | - | - | - |
| 1777994476 | 24.44° C | 48% | 1014.8 hPa | 0 mm | - | - | - |
| 1777994171 | 24.44° C | 52% | 1014.5 hPa | 0 mm | - | - | - |
| 1777993869 | 24.44° C | 49% | 1014.8 hPa | 0 mm | - | - | - |
* Rain latest hour (hover to see other rain measurements)
** Current wind speed in m/s (hover to see current wind gust speed)